Погода в Тайчжуне

Тайвань     24°08′01″N   120°40′31″E
темп.,
°C
ветер,
м/с
пор.,
м/с
влажн.,
%
обл.,
%
осадки,
мм/ч
давл.,
гПа
погр.,
м
25 мая, ср
ср2523:00+23с1196100 3.3 101288
02:00+23ю119392 4.9 101023
05:00+22сз0095100 1.1 101027
08:00+24с119295 2.1 1010134
11:00+23сз1196100 4.3 1010124
14:00+23ссв1298100 18.3 1008124
17:00+23вюв1296100 16.3 100888
20:00+22вюв1297100 24.5 100964
26 мая, чт
чт2623:00+22вюв1296100 7.4 100964
02:00+23ююв1192100 8.3 100713
05:00+22юв129366 1.5 100740
08:00+22ююз2396100 3.1 1007177
11:00+23ююв2395100 6.6 1008175
14:00+24юв1387100 8.1 1006186
17:00+24ююз1291100 1.5 1005107
20:00+23ссз119484 4.7 100636
27 мая, пт
пт2723:00+23ююв0196100 2.0 100737
02:00+22ю1196100 2.6 100552
05:00+22зюз1195100 0.2 100533
08:00+23зюз1193100 1.3 1006181
11:00+24зюз2394100 2.5 1006276
14:00+23ю1398100 16.1 1006247
17:00+23ююз1295100 3.3 1006115
20:00+23ююв1194100 4.8 100724
28 мая, сб
сб2823:00+23ююв1191100 0.9 100813
02:00+22ююз1190100 1.0 100712
05:00+22ююв119183 0.3 100714
08:00+25зюз1283100 0.3 1008352
11:00+27юз2477100 2.4 1008710
14:00+26ююз4585100 7.0 1007745
17:00+26ююз2385100 2.6 1007245
20:00+24ююв1291100 4.2 100868
29 мая, вс
вс2923:00+23ююв129198 0.1 100859
02:00+23ююв2389100 0.3 100767
05:00+23ююв2288100 0.1 100737
08:00+26ю2578100 0.1 1008332
11:00+29ююз466188 0.0 10071147
14:00+31юз5755100 0.1 10051613
17:00+29юз4664100 0.1 1005901
20:00+26ююз257894 0.1 1007335